Regional Weather Roundup
Issued by NWS

Current Version | Previous Version | Text Only | Print | Product List | Glossary On
Versions: 1 2 3 4 5 6 7 8 9 10 11 12 13 14 15 16 17 18 19 20 21 22 23 24 25 26 27 28 29 30
000
ASUS42 KTBW 301410
RWRFL
FLORIDA REGIONAL WEATHER ROUNDUP
NATIONAL WEATHER SERVICE TAMPA BAY RUSKIN FL
1000 AM EDT THU OCT 30 2014

NOTE: "FAIR" INDICATES FEW OR NO CLOUDS BELOW 12,000 FEET WITH NO
SIGNIFICANT WEATHER AND/OR OBSTRUCTIONS TO VISIBILITY.


FLZ001>010-012>015-112-114-115-301500-
PANHANDLE FLORIDA

CITY           SKY/WX    TMP DP  RH WIND       PRES   REMARKS
PENSACOLA      SUNNY     63  50  62 N8        30.08R
PENSACOLA NAS  MOSUNNY   64  51  62 NE14G21   30.07R
MILTON NAS     SUNNY     62  48  60 NE10      30.09R
CRESTVIEW      SUNNY     62  50  64 NE9       30.10R
DUKE FIELD     MOSUNNY   62  49  62 NE8G17    30.08R
VALPARAISO     MOSUNNY   63  50  61 NE14      30.07R
MARY ESTHER    SUNNY     64  44  48 NE15G21   30.06R
TRI COUNTY     FAIR      63  48  58 N14       30.08R
PANAMA CITY    CLOUDY    64  50  60 N12       30.04R
TYNDALL AFB    DRIZZLE   62  55  77 NE9G17    30.04S
APALACHICOLA   MOSUNNY   67  55  65 NE13      30.01S

STATION/POSITION SKY/WX   TEMP    WIND        PRES    WAVE   SWELL
                          AIR SEA DIR/SP/G            HT/PER HT/PER
                          (F)     (DEG/KT/KT) (MB)    (FT/S) (FT/S)
30.1N   87.6W              66 77   30/ 19/ 23 1017.4R   3/ 5
29.2N   88.2W              71 78   30/ 16/ 17 1017.8R   3/ 6
28.8N   86.0W              74 79   30/ 16/ 19 1015.3R   4/ 4
PANAMA CITY BEAC           63 77   30/ 10/ 16 1017.2R
CAPE SAN BLAS    NOT AVBL
TOWER C                    68      30/ 16/ 18 1016.3R
28.5N   84.5W              78 80   70/  8/ 10 1015.3R   1/ 5   2/ 5

$$
FLZ011-016>038-118-127-128-134-139-239-301500-
NORTH FLORIDA

CITY           SKY/WX    TMP DP  RH WIND       PRES   REMARKS
MARIANNA       MOSUNNY   64  45  49 NE15      30.06R
TALLAHASSEE    PTSUNNY   65  47  52 N7        30.03R
PERRY          PTSUNNY   64  59  82 N7        30.02S
CROSS CITY       N/A     68  66  93 VRB5      30.00S
LAKE CITY      FAIR      68  63  83 CALM      30.01S
GAINESVILLE    CLOUDY    65  65 100 NE6       30.01R FOG
MAYPORT NAS    MOSUNNY   71  64  78 NW5       29.99F
JACKSONVILLE   MOSUNNY   69  65  86 N7        29.99S
JAX NAS        MOSUNNY   72  62  71 N9        30.00S
JAX CRAIG      SUNNY     70  63  78 NW8       29.99F
JAX CECIL      SUNNY     68  64  88 N6        30.00F
FERNANDINA BEA FAIR      73  66  78 NW7       29.98S
ST AUGUSTINE   MOSUNNY   72  67  84 NW5       30.00S

STATION/POSITION SKY/WX   TEMP    WIND        PRES    WAVE   SWELL
                          AIR SEA DIR/SP/G            HT/PER HT/PER
                          (F)     (DEG/KT/KT) (MB)    (FT/S) (FT/S)
SHELL POINT                62      10/  7/  9   N/A
KEATON BEACH               66      30/  5/  7 1016.4R
CEDAR KEY                  71      40/  5/  7 1016.1R
FERNANDINA                 68 75  360/  6/  8 1015.2F
30.7N   81.3W                 76                N/A     2/ 3
MAYPORT                    68 76  340/  7/  9   N/A
31.4N   80.9W              69 74  350/ 10/ 12 1015.2R   2/ 3
ST AUGUSTINE               71     340/  7/  8 1016.3R

$$
FLZ040-043>046-052-053-057-058-063-144-301500-
INTERIOR CENTRAL FLORIDA

CITY           SKY/WX    TMP DP  RH WIND       PRES   REMARKS
OCALA          MOSUNNY   72  64  78 N5        30.00S
THE VILLAGES     N/A     73  68  83 VRB5      29.90S
LEESBURG       CLOUDY    73  66  78 N5        30.00S
SANFORD        SUNNY     76  65  68 VRB3      29.99F
ORLANDO EXEC   MOSUNNY   74  67  78 NW3       30.00R
ORLANDO INTL   MOSUNNY   76  66  71 W3        30.00R
KISSIMMEE      SUNNY     75  68  78 CALM      30.00R
WINTER HAVEN   PTSUNNY   75  66  73 W5        30.01R
LAKELAND       MOSUNNY   73  66  78 CALM      30.00R
OKEECHOBEE       N/A     73  68  83 MISG        N/A

$$
FLZ041-047-054-059-064-141-147-301500-
EAST CENTRAL FLORIDA

CITY           SKY/WX    TMP DP  RH WIND       PRES   REMARKS
ORMOND BEACH   SUNNY     72  66  83 NW6       29.99S
DAYTONA BEACH  MOSUNNY   73  66  78 NW7       29.99F
DELAND         SUNNY     73  66  78 NW5       30.01S
NEW SMYRNA BEA SUNNY     73  66  78 W3        30.00R
JFK SPACE CTR  SUNNY     74  67  77 W3        29.99R
TITUSVILLE     SUNNY     72  66  83 W7        29.99S
CAPE CANAVERAL SUNNY     76  67  75 W9        29.98S
PATRICK AFB    SUNNY     76  68  77 W8        29.98S
MELBOURNE      SUNNY     77  68  73 W8        29.98S
VERO BEACH     SUNNY     75  67  76 W7        29.99R
FT PIERCE      SUNNY     76  67  73 W5        29.98S
STUART         MOSUNNY   75  66  73 NW5       29.99S

STATION/POSITION SKY/WX   TEMP    WIND        PRES    WAVE   SWELL
                          AIR SEA DIR/SP/G            HT/PER HT/PER
                          (F)     (DEG/KT/KT) (MB)    (FT/S) (FT/S)
28.5N   80.2W              76 79  280/ 10/ 10 1015.5R
28.9N   78.5W              78 81  330/  4/  6 1015.2S   3/ 7   3/ 7
TRIDENT PIER               74 78  290/  6/  8 1015.0S
28.4N   80.5W                 78                N/A     1/ 7
27.6N   80.2W                 79                N/A     1/ 8

$$
FLZ050-056-061-142-242-148-248-149-249-151-251-155-255-
160-260-301500-
WEST CENTRAL FLORIDA

CITY           SKY/WX    TMP DP  RH WIND       PRES   REMARKS
CRYSTAL RIVER  PTSUNNY   73  64  73 CALM      30.00R
INVERNESS      FAIR      73  64  73 CALM      30.01S
BROOKSVILLE    MOSUNNY   75  66  73 NE6       30.00S
ZEPHYRHILLS    FAIR      72  64  78 CALM      30.00F
CLEARWATER     PTSUNNY   75  67  76 NE5       29.99R
TAMPA INTL     PTSUNNY   76  63  64 NE3       29.99F
TAMPA EXEC     SUNNY     77  68  73 CALM      29.99F
PLANT CITY     SUNNY     77  68  73 CALM      30.00F
MACDILL AFB    MOSUNNY   76  71  83 E5        29.99S
ST PETERSBURG  MOSUNNY   76  68  76 E5        29.97R
SARASOTA       MOSUNNY   75  67  76 SE5       29.97S
VENICE           N/A     77  66  69 SE8       29.99S

STATION/POSITION SKY/WX   TEMP    WIND        PRES    WAVE   SWELL
                          AIR SEA DIR/SP/G            HT/PER HT/PER
                          (F)     (DEG/KT/KT) (MB)    (FT/S) (FT/S)
CEDAR KEY                  71      40/  5/  7 1016.1R
28.5N   84.5W              78 80   70/  8/ 10 1015.3R   1/ 5   2/ 5
27.3N   84.3W                 80                N/A     1/ 5
CLEARWATER BEACH           75 76   60/  4/  5 1015.0R
MIDDLE TAMPA BAY           73     140/  4/  4 1015.6S
VENICE                     77 78  140/  6/  7 1014.9R

$$
FLZ066-069-070-075>078-162-262-165-265-301500-
SOUTHWEST FLORIDA AND KEYS

CITY           SKY/WX    TMP DP  RH WIND       PRES   REMARKS
PUNTA GORDA    SUNNY     76  70  82 SE6       30.00S
FT MYERS       SUNNY     75  69  81 VRB3      29.98R
SOUTHWEST INTL SUNNY     73  68  84 CALM      29.99R
NAPLES         SUNNY     76  69  79 CALM      29.98R
MARCO ISLAND   SUNNY     77  70  78 CALM      29.99R
MARATHON       MOSUNNY   80  70  71 NE7       29.99R
KEY WEST NAS   MOSUNNY   81  69  67 NE6       29.99R
KEY WEST INTL  MOSUNNY   81  71  71 E3        29.99R

STATION/POSITION SKY/WX   TEMP    WIND        PRES    WAVE   SWELL
                          AIR SEA DIR/SP/G            HT/PER HT/PER
                          (F)     (DEG/KT/KT) (MB)    (FT/S) (FT/S)
VENICE                     77 78  140/  6/  7 1014.9R
NAPLES                     80 81   CALM  /  1 1015.9R
26.0N   85.6W              79 80  290/  8/  8 1015.8R   2/ 5   2/ 5
DRY TORTUGAS               79      70/  6/  6 1015.0R
NW FL BAY                  78      60/  3/  3 1015.3R
SAND KEY                   78      80/  8/  8 1015.4R
SOMBRERO KEY               78      30/  5/  6 1016.1R
LONG KEY                   77 78   10/  4/  4 1016.0R
MOLASSES REEF              77 81  340/  6/  7 1015.3R

$$
FLZ067-068-071>074-168-172>174-301500-
SOUTHEAST FLORIDA

CITY           SKY/WX    TMP DP  RH WIND       PRES   REMARKS
W PALM BEACH   MOSUNNY   77  68  73 W6        29.97S
FT LAUDER-EXEC SUNNY     78  66  66 NW6       29.98
FT LAUDERDALE  MOSUNNY   80  68  66 NW5       29.97S
POMPANO BEACH  SUNNY     80  67  64 NW8       29.98R
PEMBROKE PINES SUNNY     80  67  64 NW3       29.99S
OPA LOCKA      SUNNY     79  67  66 NW3       29.99R
MIAMI          MOSUNNY   80  66  62 CALM      29.99R
WEST KENDALL   SUNNY     82  68  62 NW5       29.99R
HOMESTEAD      SUNNY     79  67  67 NW3       29.99R

STATION/POSITION SKY/WX   TEMP    WIND        PRES    WAVE   SWELL
                          AIR SEA DIR/SP/G            HT/PER HT/PER
                          (F)     (DEG/KT/KT) (MB)    (FT/S) (FT/S)
PORT EVERGLADES            78     310/  4/  6 1015.0
VIRGINIA KEY               80 78  280/  3/  5 1015.6F
LAKE WORTH                 77 81  300/  6/  7 1014.8F
FOWEY ROCKS                77 80  310/  8/  8 1015.4R
SETTLEMENT POINT           78      10/  5/  6 1015.6R

$$




USA.gov is the U.S. government's official web portal to all federal, state and local government web resources and services.